Regional Weather Roundup
Issued by NWS Charleston, WV

Home | Current Version | Previous Version | Graphics & Text | Print | Product List | Glossary On
Versions: 1 2 3 4 5 6 7 8 9 10 11 12 13 14 15 16 17 18 19 20 21 22 23 24 25 26 27 28 29 30 31 32 33 34 35 36 37 38 39 40 41 42 43 44 45 46 47 48 49 50
000
ASUS41 KRLX 081410
RWRRLX
West Virginia Regional Weather Roundup
National Weather Service Charleston WV
Issued by National Weather Service Pittsburgh PA
900 AM EST THU DEC 08 2016

Note: "fair" indicates few or no clouds below 12,000 feet with no
significant weather and/or obstructions to visibility.

WVZ003-081500-
Northern Panhandle of West Virginia

CITY           SKY/WX    TMP DP  RH WIND       PRES   REMARKS
WHEELING       CLOUDY    30  20  66 W12G22    30.06R WCI  20
$$

WVZ009-081500-
Northwest West Virginia

CITY           SKY/WX    TMP DP  RH WIND       PRES   REMARKS
PARKERSBURG    CLOUDY    32  20  61 W10       30.16R WCI  24
$$

WVZ006-081500-
Western West Virginia

CITY           SKY/WX    TMP DP  RH WIND       PRES   REMARKS
HUNTINGTON     CLOUDY    33  19  56 W6        30.21R WCI  28
$$

WVZ015-081500-
West Central West Virginia

CITY           SKY/WX    TMP DP  RH WIND       PRES   REMARKS
CHARLESTON     CLOUDY    34  24  67 W9        30.17R WCI  27
$$

WVZ031-081500-
North Central West Virginia

CITY           SKY/WX    TMP DP  RH WIND       PRES   REMARKS
CLARKSBURG     CLOUDY    33  23  66 SW8       30.09S WCI  26
MORGANTOWN     CLOUDY    33  21  61 S8G17     30.06F WCI  26
$$

WVZ035-042-081500-
South Central West Virginia

CITY           SKY/WX    TMP DP  RH WIND       PRES   REMARKS
BECKLEY        CLOUDY    29  19  66 W8        30.11R WCI  21
BLUEFIELD      CLOUDY    28  18  66 W10       30.11R WCI  19
$$

WVZ045-081500-
Greenbrier Valley of West Virginia

CITY           SKY/WX    TMP DP  RH WIND       PRES   REMARKS
LEWISBURG      CLOUDY    31  18  58 CALM      30.10R
$$

WVZ047-081500-
Northern Mountains of West Virginia

CITY           SKY/WX    TMP DP  RH WIND       PRES   REMARKS
ELKINS         CLOUDY    31  20  63 SW8       30.07S WCI  23
$$

WVZ052-081500-
Eastern Panhandle of West Virginia

CITY           SKY/WX    TMP DP  RH WIND       PRES   REMARKS
MARTINSBURG    CLOUDY    40  22  48 W10       30.05R
PETERSBURG     CLOUDY    32  28  84 CALM      30.07S
$$



USA.gov is the U.S. government's official web portal to all federal, state and local government web resources and services.